KB2KRJ Weather Reports


Display with metric or nautical units.
time (UTC)temp
F
wind
direction
speed
MPH
gust
MPH
rain 1hr
in
rain 24hr
in
rain mn
in
humidity
%
barometer
mb
20260906171557 69 13 0.0 8.0 0.00 0.00 0.00 62 1016.8
20260906170055 69 82 3.0 8.0 0.00 0.00 0.00 61 1016.9
20260906164551 69 26 0.0 6.0 0.00 0.00 0.00 61 1016.8
20260906163044 69 26 0.0 6.0 0.00 0.00 0.00 60 1016.9
20260906161545 69 348 1.0 4.0 0.00 0.00 0.00 59 1016.9
20260906160034 68 336 0.0 9.0 0.00 0.00 0.00 59 1017.0
20260906154541 68 344 2.0 8.0 0.00 0.00 0.00 61 1017.1
20260906153027 69 41 1.0 8.0 0.00 0.00 0.00 59 1017.3
20260906151522 69 29 1.0 7.0 0.00 0.00 0.00 56 1017.1
20260906150018 67 11 2.0 8.0 0.00 0.00 0.00 56 1017.1
20260906144517 67 5 2.0 7.0 0.00 0.00 0.00 53 1017.0
20260906143009 67 350 1.0 7.0 0.00 0.00 0.00 49 1016.9
20260906141504 66 333 1.0 8.0 0.00 0.00 0.00 42 1016.6
20260906134558 65 28 0.0 3.0 0.00 0.00 0.00 28 1016.6
20260906133052 66 24 0.0 3.0 0.00 0.00 0.00 18 1016.5
20260906131550 66 19 0.0 1.0 0.00 0.00 0.00 7 1016.6
20260906130050 66 21 0.0 4.0 0.00 0.00 0.00 5 1016.5
20260906124539 65 36 0.0 3.0 0.00 0.00 0.00 2 1016.5
20260906123041 65 35 0.0 3.0 0.00 0.00 0.00 100 1016.5
20260906121530 64 30 0.0 3.0 0.00 0.00 0.00 100 1016.3
20260906120025 0 0.0 0.0 0.00 0.00 0.00 1016.2
20260906114521 0 0.0 0.0 0.00 0.00 0.00 1016.1
20260906113017 0 0.0 0.0 0.00 0.00 0.00 1015.8
20260906111512 0 0.0 0.0 0.00 0.00 0.00 1015.6
20260906110008 0 0.0 0.0 0.00 0.00 0.00 1015.5
20260906104505 0 0.0 0.0 0.00 0.00 0.00 1015.3
20260906103102 0 0.0 0.0 0.00 0.00 0.00 1015.0
20260906101555 0 0.0 0.0 0.00 0.00 0.00 1014.9
20260906100057 61 43 0.0 0.0 0.00 0.00 0.00 100 1014.8
20260906094549 61 43 0.0 0.0 0.00 0.00 0.00 100 1014.6
20260906093041 62 43 0.0 0.0 0.00 0.00 0.00 100 1014.4
20260906091537 62 43 0.0 0.0 0.00 0.00 0.00 100 1014.3
20260906090032 61 43 0.0 1.0 0.00 0.00 0.00 100 1014.1
20260906084530 61 44 0.0 0.0 0.00 0.00 0.00 100 1014.1
20260906083022 62 44 0.0 0.0 0.00 0.00 0.00 100 1014.0
20260906081517 62 44 0.0 0.0 0.00 0.00 0.00 100 1013.9
20260906080013 62 44 0.0 0.0 0.00 0.00 0.00 100 1013.9
20260906074508 62 44 0.0 0.0 0.00 0.00 0.00 100 1013.8
20260906073004 62 44 0.0 0.0 0.00 0.00 0.00 100 1013.8
20260906071600 63 44 0.0 0.0 0.00 0.00 0.00 100 1013.9
20260906070055 63 44 0.0 0.0 0.00 0.00 0.00 100 1013.7
20260906064550 63 44 0.0 0.0 0.00 0.00 0.00 100 1013.8
20260906063047 63 44 0.0 0.0 0.00 0.00 0.00 100 1013.9
20260906061542 63 44 0.0 0.0 0.00 0.00 0.00 100 1013.9
20260906060038 63 44 0.0 0.0 0.00 0.00 0.00 100 1014.0
20260906054550 63 44 0.0 0.0 0.00 0.00 0.00 100 1014.0
20260906053029 63 44 0.0 0.0 0.00 0.00 0.00 100 1014.2
20260906051532 63 44 0.0 0.0 0.00 0.00 0.00 100 1014.2
20260906050028 63 44 0.0 0.0 0.00 0.00 0.00 100 1014.2
20260906044516 63 44 0.0 0.0 0.00 0.00 0.00 100 1014.1
20260906043012 63 44 0.0 0.0 0.00 0.00 0.00 100 1014.1
20260906041507 63 44 0.0 0.0 0.00 0.00 0.00 100 1014.1
20260906040003 63 44 0.0 1.0 0.00 0.00 0.00 100 1014.0
20260906034600 63 44 0.0 0.0 0.00 0.00 0.00 100 1014.1
20260906033103 62 44 0.0 0.0 0.00 0.00 0.00 100 1014.1
20260906031608 62 44 0.0 0.0 0.00 0.00 0.00 100 1013.9
20260906030045 63 44 0.0 0.0 0.00 0.00 0.00 100 1013.8
20260906024555 63 44 0.0 0.0 0.00 0.00 0.00 100 1013.8
20260906023043 63 44 0.0 0.0 0.00 0.00 0.00 100 1013.7
20260906021533 63 44 0.0 0.0 0.00 0.00 0.00 100 1013.7
20260906020028 63 44 0.0 0.0 0.00 0.00 0.00 100 1013.6
20260906014524 63 44 0.0 0.0 0.00 0.00 0.00 100 1013.6
20260906013019 63 44 0.0 1.0 0.00 0.00 0.00 100 1013.5
20260906011515 64 44 0.0 0.0 0.00 0.00 0.00 100 1013.2
20260906010029 64 44 0.0 0.0 0.00 0.00 0.00 100 1013.3
20260906004506 64 44 0.0 2.0 0.00 0.00 0.00 100 1013.3
20260906003002 65 44 0.0 0.0 0.00 0.00 0.00 100 1013.1
20260906001557 65 44 0.0 0.0 0.00 0.00 0.00 100 1012.9
20260906000100 65 44 0.0 0.0 0.00 0.00 0.00 100 1012.8
20260905234554 66 44 0.0 0.0 0.00 0.00 0.00 100 1012.8
20260905233045 66 44 0.0 1.0 0.00 0.00 0.00 100 1012.8
20260905231540 66 51 0.0 1.0 0.00 0.00 0.00 100 1012.6
20260905230036 67 51 0.0 0.0 0.00 0.00 0.00 1 1012.5
20260905224532 68 51 0.0 1.0 0.00 0.00 0.00 8 1012.4
20260905223028 69 51 0.0 1.0 0.00 0.00 0.00 1 1012.5
20260905221522 69 51 0.0 0.0 0.00 0.00 0.00 8 1012.4
20260905220022 70 51 0.0 0.0 0.00 0.00 0.00 100 1012.2
20260905214514 70 51 0.0 1.0 0.00 0.00 0.00 100 1012.2
20260905213010 70 51 0.0 1.0 0.00 0.00 0.00 100 1012.0
20260905211513 70 51 0.0 0.0 0.00 0.00 0.00 100 1012.0
20260905210001 69 51 0.0 0.0 0.00 0.00 0.00 100 1011.9
20260905204605 69 51 0.0 0.0 0.00 0.00 0.00 100 1011.9
20260905203059 69 51 0.0 1.0 0.00 0.00 0.00 100 1011.7
20260905201553 69 51 0.0 0.0 0.00 0.00 0.00 15 1011.5
20260905200045 70 51 0.0 1.0 0.00 0.00 0.00 51 1011.8
20260905194539 72 360 0.0 10.0 0.00 0.00 0.00 62 1011.7
20260905193037 74 61 0.0 3.0 0.00 0.00 0.00 61 1011.3
20260905191530 73 25 2.0 6.0 0.00 0.00 0.00 60 1011.3
20260905190026 73 30 0.0 1.0 0.00 0.00 0.00 58 1011.3
20260905184522 72 43 0.0 7.0 0.00 0.00 0.00 60 1011.3
20260905183029 72 34 0.0 3.0 0.00 0.00 0.00 60 1011.4
20260905181513 72 13 0.0 3.0 0.00 0.00 0.00 59 1011.4
20260905180007 72 33 1.0 5.0 0.00 0.00 0.00 59 1011.3
20260905174504 72 17 1.0 4.0 0.00 0.00 0.00 59 1011.4
20260905173105 73 14 0.0 0.0 0.00 0.00 0.00 58 1011.3